User: anonymous   Login
Location: Unspecified
(0.0000°N, 0.0000°E)
Time: 22:38:00
(UTC+02:00)
Language:

Cosmos 1703 Rocket - Orbit

View from above orbital plane
View from above orbital plane
View from above satellite
View from above satellite

Ground track
Ground track

The orbit data is extracted from the following two-line orbital elements,

1 16263U 85108B   17145.96819130 +.00000084 +00000-0 +73066-5 0  9994
2 16263 082.5020 135.1688 0021543 063.4875 325.7736 14.82984765680019
Epoch (UTC): 25 May 2017 23:14:11
Eccentricity: 0.0021543
inclination: 82.5020°
perigee height: 605 km
apogee height: 635 km
right ascension of ascending node: 135.1688°
argument of perigee: 63.4875°
revolutions per day: 14.82984765
mean anomaly at epoch: 325.7736°
orbit number at epoch: 68001

The dashed part of the orbit path shows where the satellite is in the earth's shadow,  

DLR